Wind_Speed
8 8 8 8 10 10 10 11 13 12 13 14 16 16 16 14 15 16 17 19 19 19 20 18 18 18 18 18 17 17 17 18 18 19 19 19 20 19 19 19 19 18 18 19
9 10 10 10 11 10 10 12 12 13 14 14 15 14 14 14 16 17 18 19 20 20 20 18 17 17 17 17 17 17 17 18 18 18 19 19 19 19 19 19 19 19 19 19
8 10 11 10 10 11 12 12 13 12 11 12 13 13 15 15 16 17 17 19 19 20 18 18 17 17 17 16 17 18 17 18 17 18 19 19 19 19 19 18 19 19 19 19
7 9 10 11 11 11 11 11 11 9 10 10 12 13 15 17 16 18 16 16 16 16 18 17 16 16 16 16 17 17 17 17 18 18 19 20 19 19 19 18 18 18 19 18
8 9 8 9 10 11 10 10 9 8 8 9 11 12 14 15 17 17 16 15 15 17 17 17 16 16 16 16 16 16 17 18 19 20 21 20 19 18 18 18 18 18 18 18
9 10 9 9 9 10 9 9 6 6 7 9 10 12 14 14 15 16 16 15 16 17 17 16 15 15 16 15 14 16 18 18 20 20 19 19 18 18 17 17 18 18 18 18
8 10 10 9 8 8 7 7 5 6 7 10 11 13 15 15 15 16 15 16 15 15 16 15 14 14 15 15 15 16 16 17 17 17 17 18 18 18 17 17 17 17 17 17
6 9 9 8 7 6 6 6 6 6 8 9 10 13 15 14 15 15 14 15 16 14 14 13 14 14 15 15 15 15 15 15 15 15 16 16 16 17 17 16 16 16 15 15
6 7 8 7 6 6 4 5 4 7 7 8 10 12 13 13 15 15 14 14 14 13 13 13 14 14 14 14 14 14 14 14 14 15 15 15 15 16 16 16 14 13 13 13
7 6 6 6 5 6 5 2 4 6 7 8 10 13 13 13 14 15 14 13 13 12 13 12 13 13 14 13 13 14 14 14 14 14 14 13 14 13 13 13 12 12 12 12
6 5 4 4 5 6 5 4 4 5 7 8 10 13 12 12 13 14 14 13 12 11 11 12 12 13 13 13 13 13 13 13 13 12 12 12 12 11 11 10 10 10 10 11
6 5 4 5 6 7 5 4 4 6 6 8 10 12 11 13 12 12 11 11 11 11 12 12 12 13 13 12 12 12 12 12 11 11 12 12 11 10 10 9 9 10 11 11
6 5 5 6 7 8 6 5 6 7 7 8 9 10 10 11 11 10 10 10 10 11 11 12 12 12 12 12 12 11 11 11 10 10 11 11 10 10 9 8 8 9 10 11
6 5 5 5 5 6 6 6 7 7 7 10 10 9 9 10 10 9 9 10 10 11 12 11 12 12 12 12 11 11 10 10 9 9 9 10 9 9 8 8 8 9 10 11
6 6 5 4 4 5 6 6 7 7 7 9 10 9 8 10 10 10 9 10 10 11 12 12 12 13 13 12 11 10 10 9 9 9 8 8 8 7 7 8 8 9 9 10
7 6 6 4 4 5 5 6 6 7 8 8 8 7 8 8 10 10 9 10 10 11 12 12 12 12 11 10 10 9 9 8 8 7 7 7 7 7 7 8 7 8 8 9
7 6 6 5 5 5 6 6 7 8 8 9 8 8 9 8 9 10 9 10 10 11 12 12 12 11 10 10 9 9 8 8 7 7 7 7 7 7 8 8 8 8 8 9
7 6 6 6 6 6 7 7 8 9 9 9 9 9 9 9 9 9 9 10 10 11 12 11 10 10 10 10 10 8 8 8 8 7 7 7 7 8 8 8 8 8 8 9
8 8 7 6 6 7 8 8 9 10 10 9 8 7 8 8 8 8 9 9 10 11 11 11 10 10 10 10 10 9 8 8 7 6 6 6 7 7 7 8 8 9 9 10
9 9 9 9 9 9 10 10 11 11 10 10 9 8 8 9 9 9 9 10 11 11 11 10 10 10 10 10 10 9 8 7 6 6 6 6 7 7 7 8 9 9 10 11
11 11 11 11 11 11 12 11 11 11 10 9 9 9 9 9 10 10 10 11 11 11 11 9 10 10 10 10 9 8 7 6 6 6 7 7 7 8 8 9 9 10 10 11
13 13 13 12 12 13 13 13 12 12 10 9 10 10 10 10 10 11 11 11 11 11 10 9 9 9 9 9 8 7 6 6 6 7 7 8 8 8 9 9 10 11 11 12
14 14 14 14 14 14 14 13 13 12 12 11 11 11 11 11 11 10 10 10 10 10 10 9 8 8 8 8 7 7 7 6 7 8 8 9 9 9 10 10 11 11 12 13
15 15 15 15 15 15 14 13 13 12 12 12 12 12 11 11 10 9 9 9 10 10 9 8 8 8 8 8 7 7 7 7 8 8 9 10 10 10 10 11 11 12 13 14
16 16 15 15 15 15 14 15 13 12 12 12 12 12 12 10 10 10 10 10 10 10 9 9 8 8 8 8 7 7 7 8 8 9 10 10 11 11 11 11 11 12 13 15
16 15 15 16 16 15 15 15 14 14 13 13 12 12 12 11 11 11 11 11 11 10 10 9 8 8 8 8 8 8 8 9 9 9 10 10 11 11 12 12 12 13 15 16
Wind_Direction
323 308 291 278 264 260 265 259 264 266 266 270 274 279 285 283 275 279 284 286 287 289 291 289 285 285 282 282 283 285 286 288 288 290 291 288 286 284 283 281 281 280 279 277
305 291 286 278 278 273 265 265 267 267 272 270 273 278 280 275 277 282 282 285 288 292 294 292 288 286 283 283 282 284 286 287 289 292 292 291 288 287 285 283 280 279 274 273
291 287 280 280 279 270 268 269 270 272 278 274 273 277 277 279 280 281 282 286 291 297 297 293 285 283 283 279 280 281 282 286 290 291 292 292 289 286 286 287 285 281 276 273
295 286 279 275 273 268 266 270 271 275 283 278 272 273 276 284 287 290 287 287 293 298 300 298 289 284 281 280 278 279 283 289 291 292 294 294 289 286 285 287 285 284 280 277
302 296 290 282 274 271 270 273 272 279 287 281 269 266 273 279 286 292 293 295 298 298 298 300 298 291 285 282 279 280 285 288 289 291 293 294 290 288 287 284 284 285 282 278
297 301 299 291 286 281 286 288 282 276 274 274 273 268 270 280 288 295 297 300 300 299 299 296 294 292 290 287 284 285 286 287 289 289 290 291 291 290 288 283 283 285 282 280
296 295 295 295 291 285 287 290 288 275 271 265 266 262 272 280 285 292 302 307 306 304 302 298 293 289 291 292 291 292 294 294 292 292 292 290 289 291 288 285 284 284 282 280
297 291 297 303 293 285 275 286 297 295 280 273 266 263 274 280 290 294 300 305 304 306 307 303 299 293 294 296 296 296 297 296 296 296 296 294 292 290 287 285 285 285 284 282
315 301 308 312 314 298 275 266 283 292 292 283 269 269 276 284 293 297 301 306 306 308 309 309 304 297 299 301 300 301 298 296 297 298 299 299 298 293 291 287 285 285 283 282
321 313 315 324 333 327 313 293 293 297 292 285 278 277 289 290 295 298 303 309 313 314 312 311 309 304 302 305 304 301 299 298 300 301 302 304 302 299 294 288 287 286 284 283
329 321 316 318 323 311 303 296 295 299 293 285 284 283 290 291 297 300 303 308 315 317 315 314 317 314 311 310 308 305 304 303 302 302 303 306 308 306 298 292 290 286 284 286
332 332 330 315 314 313 315 309 312 310 298 295 289 292 295 294 299 305 305 311 317 318 318 320 320 321 317 315 312 307 306 305 303 301 303 303 308 309 302 293 289 284 285 290
332 335 331 328 324 320 324 321 314 306 303 307 300 294 300 300 306 308 310 315 319 321 323 324 324 326 322 318 314 309 306 309 308 307 307 311 312 312 310 301 293 290 290 294
328 331 328 327 327 326 333 332 322 312 301 301 304 303 306 310 313 312 312 315 317 323 326 325 325 326 324 322 319 316 314 312 313 316 317 319 314 313 311 308 301 296 297 301
323 329 329 330 339 339 343 333 323 313 304 300 304 306 312 314 315 313 316 317 320 325 328 329 328 327 327 326 322 318 318 317 316 317 318 320 323 320 315 312 308 302 302 304
330 332 326 328 335 327 326 325 320 320 318 310 312 322 324 320 317 320 319 315 319 325 328 332 332 331 332 331 330 327 325 327 326 323 320 318 321 326 324 319 316 313 311 310
320 326 325 323 314 322 322 321 318 321 327 324 318 321 325 326 320 323 321 321 323 327 329 331 331 336 339 337 336 336 335 332 332 330 328 326 324 327 330 332 328 326 325 323
305 304 309 312 315 321 324 317 311 316 317 319 318 317 320 317 319 325 328 326 329 332 330 330 332 336 337 337 338 337 336 337 337 335 330 331 331 331 331 332 331 330 332 332
300 300 298 295 296 300 306 312 309 309 311 316 319 323 318 312 317 324 327 330 330 331 332 333 335 336 335 336 333 336 336 337 338 339 338 336 336 336 337 339 339 340 339 337
289 290 288 286 285 290 296 302 302 304 306 311 319 324 318 318 318 322 325 325 326 330 332 333 339 342 342 339 337 337 339 339 346 345 343 340 340 343 345 344 342 342 341 339
278 281 282 285 285 284 292 302 300 295 302 308 315 315 313 319 318 320 325 325 326 327 329 331 336 341 344 344 342 341 343 347 352 353 349 346 345 345 344 343 341 338 337 337
275 279 280 282 283 284 290 295 297 297 297 296 303 305 307 309 310 316 322 324 326 328 329 330 335 341 344 345 347 352 355 356 357 352 353 353 348 344 341 339 338 339 338 337
272 275 278 278 281 286 288 291 295 292 287 289 294 297 301 304 306 313 319 322 323 327 329 332 336 339 341 343 347 352 355 355 351 347 345 344 342 339 338 337 337 338 337 336
271 271 274 277 278 283 286 288 288 290 288 288 290 292 295 297 301 307 313 316 319 323 325 327 330 332 335 337 341 341 343 343 348 347 344 342 341 341 338 334 335 337 336 335
271 271 275 275 276 279 281 284 285 286 287 286 289 291 291 293 296 301 306 311 314 316 316 319 323 325 326 328 331 335 335 338 337 338 339 338 337 335 335 332 332 333 333 334
271 270 272 273 274 277 278 279 279 280 282 286 290 294 293 288 290 295 301 305 309 309 307 308 309 315 320 322 325 324 324 326 329 330 332 332 331 331 333 335 334 333 333 333
Height
5836 5837 5836 5837 5837 5837 5839 5838 5838 5838 5838 5837 5835 5834 5833 5830 5830 5830 5829 5828 5826 5824 5824 5823 5823 5822 5822 5821 5820 5820 5820 5819 5818 5817 5817 5816 5816 5815 5815 5814 5814 5814 5814 5814
5836 5836 5836 5835 5835 5835 5835 5835 5835 5835 5833 5833 5832 5831 5830 5827 5827 5827 5826 5825 5823 5822 5821 5820 5820 5819 5818 5817 5817 5817 5817 5816 5815 5814 5813 5812 5811 5811 5810 5810 5810 5810 5810 5810
5835 5835 5833 5833 5832 5833 5832 5832 5832 5831 5830 5829 5829 5828 5827 5825 5825 5824 5822 5821 5820 5818 5817 5816 5816 5815 5815 5814 5814 5813 5813 5812 5811 5810 5809 5808 5807 5806 5806 5805 5805 5805 5805 5805
5832 5831 5831 5830 5830 5829 5829 5829 5828 5828 5827 5827 5828 5827 5824 5822 5821 5821 5819 5819 5818 5815 5814 5812 5811 5811 5811 5811 5810 5810 5809 5808 5807 5806 5805 5804 5802 5802 5802 5801 5800 5800 5800 5800
5829 5829 5828 5827 5827 5826 5826 5826 5825 5825 5825 5825 5825 5825 5823 5820 5820 5819 5817 5816 5816 5814 5812 5811 5808 5807 5807 5807 5806 5806 5805 5804 5803 5802 5800 5799 5798 5797 5797 5797 5796 5796 5795 5795
5827 5826 5825 5824 5824 5823 5823 5823 5823 5823 5823 5823 5823 5823 5820 5819 5818 5816 5815 5814 5813 5811 5810 5808 5806 5805 5804 5803 5802 5801 5801 5799 5798 5797 5796 5795 5794 5793 5792 5792 5792 5791 5791 5791
5824 5824 5823 5822 5821 5821 5821 5821 5821 5821 5821 5822 5822 5821 5820 5818 5816 5815 5813 5812 5811 5809 5807 5805 5803 5802 5801 5800 5799 5798 5796 5795 5794 5793 5792 5791 5790 5789 5788 5788 5787 5787 5787 5787
5823 5822 5821 5820 5820 5819 5819 5820 5820 5820 5820 5820 5819 5819 5818 5815 5814 5812 5811 5810 5808 5806 5804 5802 5800 5799 5798 5797 5795 5794 5792 5791 5790 5789 5788 5787 5786 5785 5784 5784 5783 5783 5783 5783
5821 5821 5820 5819 5818 5818 5818 5818 5819 5819 5819 5819 5817 5816 5815 5813 5812 5810 5809 5808 5805 5803 5802 5800 5798 5797 5795 5793 5792 5790 5789 5788 5787 5786 5784 5783 5782 5780 5780 5779 5779 5779 5779 5779
5819 5819 5819 5818 5818 5817 5817 5817 5818 5817 5817 5816 5816 5813 5813 5812 5810 5808 5806 5805 5803 5801 5800 5798 5796 5794 5792 5790 5789 5788 5786 5785 5784 5783 5781 5780 5778 5776 5776 5775 5776 5776 5776 5776
5819 5818 5818 5818 5817 5817 5817 5816 5816 5816 5815 5815 5814 5814 5811 5809 5808 5807 5805 5803 5802 5800 5798 5796 5794 5792 5790 5788 5787 5785 5784 5782 5781 5780 5778 5777 5775 5773 5773 5772 5772 5773 5773 5773
5818 5818 5817 5818 5817 5816 5815 5815 5815 5815 5813 5813 5812 5813 5809 5807 5806 5804 5803 5802 5800 5798 5796 5794 5792 5790 5788 5786 5784 5783 5781 5780 5779 5778 5776 5774 5773 5771 5770 5770 5770 5770 5770 5770
5818 5818 5817 5816 5817 5816 5814 5813 5813 5812 5811 5810 5809 5811 5807 5805 5804 5803 5802 5800 5799 5797 5795 5793 5790 5788 5786 5784 5783 5781 5779 5778 5776 5775 5774 5773 5771 5770 5768 5767 5768 5768 5768 5768
5818 5817 5817 5816 5815 5814 5813 5812 5811 5810 5809 5808 5807 5806 5805 5804 5803 5802 5801 5799 5797 5795 5794 5791 5789 5787 5785 5783 5780 5779 5777 5776 5774 5773 5772 5771 5769 5768 5767 5766 5766 5766 5766 5766
5818 5817 5816 5815 5814 5814 5813 5812 5810 5809 5808 5807 5805 5804 5803 5803 5802 5801 5799 5798 5796 5794 5792 5790 5788 5785 5783 5781 5779 5777 5776 5774 5773 5772 5771 5769 5768 5767 5766 5766 5765 5765 5765 5764
5817 5816 5816 5815 5814 5813 5812 5810 5809 5808 5807 5805 5804 5803 5803 5802 5800 5799 5798 5796 5795 5793 5791 5789 5786 5784 5782 5780 5778 5776 5774 5772 5771 5770 5769 5768 5768 5767 5766 5765 5764 5764 5763 5763
5816 5816 5815 5814 5813 5812 5811 5810 5809 5807 5806 5805 5803 5803 5801 5800 5799 5798 5796 5795 5794 5792 5790 5787 5785 5783 5781 5779 5777 5775 5773 5772 5770 5769 5768 5768 5767 5766 5765 5764 5764 5763 5762 5761
5815 5815 5814 5813 5812 5811 5812 5809 5808 5807 5806 5804 5803 5801 5800 5800 5798 5797 5795 5794 5792 5791 5789 5786 5784 5782 5780 5778 5776 5774 5773 5771 5769 5768 5768 5767 5766 5766 5765 5764 5763 5762 5761 5760
5814 5813 5812 5812 5811 5810 5810 5808 5807 5806 5805 5803 5802 5801 5799 5798 5797 5796 5794 5793 5791 5789 5787 5785 5783 5781 5779 5777 5775 5774 5772 5770 5769 5768 5767 5767 5766 5765 5764 5763 5762 5761 5760 5759
5813 5812 5812 5810 5809 5809 5809 5807 5806 5805 5803 5802 5800 5799 5798 5797 5797 5796 5794 5792 5790 5788 5786 5785 5783 5781 5779 5777 5775 5773 5772 5770 5769 5768 5768 5767 5766 5765 5764 5763 5762 5760 5759 5757
5810 5809 5809 5808 5807 5806 5806 5805 5805 5804 5803 5800 5799 5798 5797 5796 5795 5794 5792 5791 5789 5787 5785 5784 5782 5780 5778 5776 5774 5773 5772 5770 5770 5769 5768 5767 5766 5765 5764 5762 5761 5759 5758 5756
5807 5806 5806 5805 5805 5806 5804 5803 5803 5801 5799 5798 5798 5797 5796 5794 5793 5792 5791 5789 5788 5786 5785 5783 5781 5780 5778 5776 5774 5773 5772 5771 5770 5769 5768 5767 5766 5765 5763 5762 5760 5759 5757 5755
5804 5804 5803 5803 5804 5803 5801 5800 5800 5798 5798 5797 5796 5795 5794 5793 5792 5791 5789 5788 5786 5785 5783 5782 5781 5779 5778 5776 5775 5774 5772 5771 5770 5769 5768 5767 5765 5764 5763 5761 5759 5757 5755 5753
5800 5800 5800 5800 5799 5799 5798 5797 5796 5796 5795 5795 5794 5793 5792 5791 5790 5789 5787 5786 5785 5784 5782 5781 5780 5779 5778 5776 5775 5774 5773 5772 5771 5769 5768 5766 5765 5763 5762 5760 5758 5756 5754 5751
5796 5796 5796 5796 5796 5796 5795 5794 5794 5793 5793 5792 5791 5791 5790 5789 5788 5787 5786 5785 5783 5782 5781 5780 5779 5778 5777 5775 5775 5773 5772 5771 5770 5769 5767 5765 5764 5762 5760 5758 5756 5754 5752 5749
5793 5793 5793 5792 5792 5792 5792 5791 5791 5791 5790 5790 5789 5788 5787 5786 5786 5785 5784 5783 5782 5781 5780 5779 5778 5777 5776 5774 5774 5773 5772 5771 5769 5768 5766 5764 5762 5760 5759 5757 5754 5752 5750 5747